Dennis Port, MA

9:59 PM EST on November 23, 2014 (GMT -0500)
Barnstable Municipal-Boardman-Polando Field | Change Station
CLOSE
Current Station
Airport
Location: Hyannis,
Elevation: 52 ft
Nearby Weather Stations

Elev 52 ft 41.67 °N, 70.28 °W | Updated 1 hour ago

Clear
Clear
47 °F
Feels Like 47 °F
N
4
Wind Variable Wind from South

Today
High -- | Low -- °F
--% Chance of Precip.
Yesterday
High -- | Low -- °F
Precip. -- in
6:39 AM 4:14 PM
Waxing Crescent, 3% visible
Pressure 30.16 in
Visibility 10.0 miles
Clouds Clear
Dew Point 43 °F
Humidity 86%
Rainfall 0.00 in
Snow Depth Not available.
UV 0 out of 12
Pollen .10 out of 12
Air Quality Not available.
Flu Activity Not available.
METAR KHYA 240156Z 18003KT 10SM CLR 08/06 A3015 RMK AO2 SLP211 T00830061

More Conditions Fewer Conditions

Pressure 30.16 in
Visibility 10.0 miles
Clouds Clear
Dew Point 43 °F
Humidity 86%
Rainfall 0.00 in
Snow Depth Not available.
UV 0 out of 12
Pollen .10 out of 12
Air Quality Not available.
Flu Activity Not available.
METAR KHYA 240156Z 18003KT 10SM CLR 08/06 A3015 RMK AO2 SLP211 T00830061

More Conditions Fewer Conditions

10-Day Weather Forecast

Almanac

Astronomy

Nov. 23, 2014 Rise Set
Actual Time
Civil Twilight
Nautical Twilight
Astronomical Twilight
Moon
Length of Visible Light
Length of Day
Tomorrow will be .
, % of the Moon is Illuminated

Today's Extremes

State Highs State Lows

Community

WunderPhotos

Upload Photos

1,773,257 photos uploaded!

WunderBlogs® & News

Nearby

Air Quality

  Air Quality AQ Index Pollutant
Not available.

Snow Depth

Station Depth Elevation

Earthquake Activity

City Distance Mag. Time & Date
Minimum magnitude displayed is 2.5.

Coastal Water Temperatures

Place Temperature

Nearby Weather Stations